Temperature
14 14 13 13 13 12 12 12 12 12 12 12 12 12 12 12 12 12 12 13 13 13 13 13 14 14 14 15 15 15 15 15 16 16 16 16 16 16 16 16 16 16 16
14 14 13 13 13 12 12 12 12 12 12 12 12 12 12 12 12 12 12 12 13 13 13 13 13 14 14 14 15 15 15 15 15 15 16 16 16 16 16 16 15 15 16
14 14 13 13 13 13 12 12 12 12 12 12 12 12 12 12 12 12 12 12 12 13 13 13 13 13 14 14 14 14 15 15 15 15 15 15 15 15 15 15 15 15 15
14 14 13 13 13 13 13 12 12 12 12 12 12 12 12 12 12 12 12 12 12 12 13 13 13 13 14 14 14 14 14 14 15 15 15 15 15 15 15 15 15 15 15
15 14 14 13 13 13 13 12 12 12 12 12 12 12 12 12 12 12 12 12 12 12 12 13 13 13 13 13 14 14 14 14 14 14 14 14 14 14 14 14 14 14 14
15 14 14 13 13 13 13 12 12 12 12 12 12 12 12 12 12 12 12 12 12 12 12 13 13 13 13 13 13 13 14 14 14 14 14 14 14 14 14 14 14 14 13
15 14 14 13 13 13 13 13 12 12 12 12 12 12 12 12 12 12 12 12 12 12 12 12 13 13 13 13 13 13 13 13 14 14 14 14 14 14 14 14 14 14 14
15 15 14 14 13 13 13 13 12 12 12 12 12 12 12 12 12 12 12 12 12 12 12 12 12 12 13 13 13 13 13 13 13 14 14 14 14 14 14 14 14 14 13
15 15 14 14 13 13 13 13 12 12 12 12 12 12 12 12 12 12 12 12 12 12 12 12 12 12 13 13 13 13 13 13 13 13 13 14 14 14 14 13 13 13 12
15 15 14 14 13 13 13 13 13 12 12 12 12 12 12 12 12 12 12 12 12 12 12 12 12 12 13 13 13 13 13 13 13 13 13 13 13 13 13 13 13 13 13
15 15 14 14 14 13 13 13 13 13 12 12 12 12 12 12 12 12 12 12 12 12 12 12 12 12 12 13 13 13 13 13 13 13 13 13 13 13 13 13 13 13 13
15 15 14 14 14 13 13 13 13 13 13 12 12 12 12 12 12 12 12 12 12 12 12 12 12 12 12 12 12 12 12 13 12 12 13 13 13 13 13 13 13 13 13
15 15 14 14 14 14 14 13 13 13 13 12 12 12 12 12 12 12 12 12 12 12 12 12 12 12 12 12 12 12 12 12 12 12 12 12 12 12 12 12 12 12 12
15 15 15 14 14 14 14 14 13 13 13 13 12 12 12 12 12 12 12 12 12 12 12 12 12 12 12 12 12 12 12 12 12 12 12 12 12 12 12 12 12 12 12
15 15 15 15 15 15 14 14 14 14 13 13 13 13 12 12 12 12 12 12 12 12 12 12 11 11 11 11 11 11 11 12 12 12 12 12 12 11 12 11 11 11 11
14 14 14 14 14 14 14 14 14 14 14 13 13 13 13 13 12 12 12 12 12 12 12 12 11 11 11 11 11 11 11 11 11 11 11 11 11 11 11 11 11 11 11
14 14 14 14 14 14 14 13 13 14 14 13 13 13 13 13 13 12 12 12 12 12 12 12 11 11 11 11 11 11 11 11 11 11 11 11 11 11 11 11 11 11 10
14 13 13 13 13 13 13 13 13 13 13 13 14 13 13 13 13 13 12 12 12 12 12 12 12 11 11 11 11 11 11 11 11 11 11 11 11 11 10 10 10 10 10
13 13 13 13 13 13 13 13 13 13 13 13 13 13 13 13 13 13 12 12 12 12 12 12 11 11 11 11 11 11 11 11 11 11 11 11 11 11 10 10 10 10 10
12 12 12 12 12 12 12 12 12 13 13 13 13 13 13 13 13 13 13 12 12 12 12 12 12 11 11 11 11 11 11 11 11 11 11 11 11 10 10 10 10 10 10
11 11 11 11 11 11 11 11 12 12 12 12 12 13 13 13 13 13 12 12 12 12 12 12 12 11 11 11 11 11 11 11 11 11 11 11 11 10 10 10 10 10 10
10 10 10 10 10 10 10 10 11 11 11 11 11 12 12 12 12 12 12 12 12 12 12 12 12 12 11 11 11 11 11 11 11 11 11 11 11 10 10 10 10 10 10
9 9 9 9 9 9 9 9 10 10 10 10 10 11 11 11 11 11 11 11 11 11 11 11 11 11 11 11 11 11 11 11 11 11 11 11 10 10 10 10 10 10 10
8 8 8 8 8 8 8 8 8 8 9 9 9 9 9 10 10 10 10 10 11 11 11 11 11 11 11 11 11 11 11 11 11 11 11 10 10 10 10 10 10 10 9
7 7 7 7 7 7 7 7 7 7 7 8 8 8 8 8 9 9 9 9 10 10 10 10 10 10 10 10 10 11 11 10 10 10 10 10 10 10 10 10 10 9 9
7 7 7 7 6 6 6 6 6 6 6 6 7 7 7 7 7 7 8 8 8 9 9 9 9 9 10 10 10 10 10 10 10 10 10 10 10 10 10 10 10 9 9
Wind_Speed
4 5 5 5 5 5 6 7 6 6 6 6 6 6 6 5 4 3 3 3 3 3 4 4 5 4 3 4 4 4 5 4 4 2 2 3 5 6 7 9 11 13 14
3 4 5 5 5 6 6 7 7 6 6 7 6 6 6 6 5 4 4 4 3 3 3 3 4 3 4 4 3 4 4 5 5 5 3 3 5 7 8 8 8 11 12
3 4 4 5 5 6 6 6 7 7 7 7 7 6 6 5 6 5 4 4 3 3 3 3 3 2 3 3 4 4 3 4 4 5 4 3 4 5 7 7 7 6 9
1 2 4 5 5 6 7 6 6 7 7 7 6 6 5 5 6 6 6 5 3 2 2 2 2 2 3 3 3 4 4 4 5 5 5 5 4 4 6 7 6 6 6
1 2 3 4 5 5 6 6 6 6 7 6 6 6 5 5 6 7 6 5 4 2 2 2 1 2 3 3 3 3 4 4 4 5 5 4 5 6 6 6 7 6 5
1 2 2 3 4 4 5 6 6 6 6 7 7 7 7 6 9 10 8 5 4 2 2 2 2 1 3 3 3 4 4 5 6 5 5 7 7 6 6 7 7 7 4
1 2 2 2 3 4 6 6 6 5 5 6 6 6 6 7 11 12 12 6 4 3 2 2 1 0 1 1 3 4 4 5 7 6 7 7 7 8 9 9 9 8 5
1 2 1 1 2 4 4 5 6 5 4 4 5 5 5 7 11 12 12 6 4 4 4 3 2 1 1 1 2 2 2 2 5 6 6 6 6 6 7 8 8 6 5
1 1 1 1 1 3 4 5 5 5 5 4 4 5 5 6 9 10 10 4 3 4 5 5 4 3 3 2 2 2 2 2 2 5 6 7 8 9 8 7 8 9 5
1 1 1 0 1 2 3 4 4 4 4 4 4 3 4 4 7 9 10 4 4 4 3 4 6 5 5 3 1 2 2 2 3 3 4 5 6 8 10 9 9 10 6
2 1 1 1 2 2 2 3 4 4 5 5 4 2 2 3 4 7 7 4 4 4 4 3 3 6 6 4 2 0 1 1 2 4 4 4 4 4 5 5 6 7 7
1 2 3 3 4 3 2 3 4 4 5 5 4 3 2 1 2 4 5 5 5 3 3 3 3 5 5 4 2 1 1 0 2 3 3 4 4 4 3 4 5 5 5
2 3 4 5 4 4 4 4 4 4 3 4 3 3 2 1 1 2 3 5 5 2 2 3 4 4 3 2 1 2 1 1 2 3 3 3 3 4 4 3 3 5 6
4 5 5 5 5 4 4 4 3 3 3 3 3 3 3 2 1 2 2 3 3 3 3 4 4 4 2 1 1 1 0 1 2 3 3 3 3 4 4 4 4 5 4
5 5 5 4 4 3 4 4 4 3 4 4 3 3 3 3 1 2 2 3 3 4 5 3 2 1 1 1 0 0 1 1 1 2 3 4 3 4 3 3 4 4 4
6 6 4 3 3 3 4 4 8 8 9 10 9 7 4 4 4 3 3 4 6 6 4 3 3 2 2 1 1 1 1 1 2 3 3 4 4 4 4 4 4 4 4
6 5 4 4 4 4 4 5 5 7 11 12 13 12 11 10 8 8 7 6 7 5 3 4 4 3 2 2 2 2 2 2 2 3 3 4 4 4 5 5 5 4 4
6 6 5 4 5 5 5 5 5 5 5 5 10 15 16 15 13 11 8 4 5 4 4 5 5 4 3 3 3 3 3 3 3 3 3 4 4 5 5 5 5 6 5
5 4 4 5 5 5 5 5 5 6 5 5 4 5 12 13 12 11 7 5 6 6 5 6 5 5 4 4 4 4 4 4 4 4 4 5 4 5 5 5 6 8 7
6 8 7 6 5 5 5 6 5 5 5 5 5 3 2 4 4 6 7 7 8 7 7 6 5 5 5 4 4 4 4 4 5 5 5 5 5 5 5 6 7 7 7
6 7 9 6 5 6 6 6 6 6 5 5 5 5 3 3 5 6 6 7 8 8 7 7 6 5 5 5 5 6 6 6 6 6 6 6 6 5 5 5 6 7 6
6 6 5 6 6 5 6 6 6 7 7 7 6 6 6 3 4 4 4 5 5 6 6 6 6 6 6 6 6 6 6 6 6 7 6 6 6 6 6 6 6 6 7
6 7 6 6 6 8 7 6 6 7 7 7 7 7 5 4 5 5 5 5 5 4 4 4 5 5 5 5 6 7 7 7 7 7 7 7 6 6 6 6 7 7 7
6 7 7 6 6 6 7 7 7 8 8 8 7 7 7 7 6 6 6 5 5 5 4 4 4 5 6 5 4 5 6 7 7 7 9 8 8 7 6 6 7 8 8
6 6 6 6 7 7 7 7 8 8 8 8 8 8 8 8 7 7 7 7 8 7 7 5 4 5 7 7 5 5 7 10 9 7 7 7 8 8 8 8 7 7 7
5 6 6 6 6 7 7 7 7 8 8 8 8 8 8 8 8 8 7 7 8 8 9 7 7 7 7 6 7 7 8 9 11 11 7 6 8 8 8 7 9 8 8
Wind_Direction
1 346 355 355 346 346 341 340 342 336 338 336 338 342 343 343 333 324 305 280 260 257 251 234 228 225 221 219 208 199 197 188 199 207 191 166 164 164 164 169 164 164 173
11 358 359 346 353 356 347 343 341 343 347 345 349 352 350 353 345 339 326 320 299 279 262 249 238 223 216 217 208 202 201 194 182 185 183 176 177 168 164 164 153 160 163
21 9 358 358 2 352 344 347 348 354 354 351 353 357 358 356 350 347 339 326 315 298 277 255 244 229 217 216 211 203 201 198 179 172 179 177 177 164 155 152 145 142 153
29 19 4 359 1 351 348 351 355 358 354 352 353 357 357 356 350 348 341 328 316 306 288 266 242 225 221 215 211 204 198 190 181 172 175 173 169 160 153 153 150 148 150
33 45 26 0 2 357 347 347 360 357 351 350 355 356 353 356 1 353 339 333 329 328 314 298 251 217 202 203 207 201 199 187 180 180 184 175 170 166 169 163 160 152 142
47 65 39 353 359 355 341 346 354 348 349 356 357 357 0 7 1 358 351 336 325 317 305 294 272 217 203 195 198 199 195 192 190 187 193 188 186 178 165 165 160 159 163
56 80 56 6 360 350 347 348 343 343 359 359 354 358 359 2 3 359 352 341 336 340 322 304 304 290 137 176 212 206 203 205 200 193 195 198 188 183 172 174 174 170 162
49 53 62 33 359 345 340 335 333 340 352 349 344 352 354 5 7 2 354 350 358 6 1 355 355 11 58 176 203 198 191 205 206 201 199 202 198 182 178 176 166 148 118
70 20 34 45 350 329 326 326 328 337 338 336 333 353 356 6 17 9 3 354 6 17 20 24 21 28 15 12 195 196 184 190 187 174 174 180 175 169 164 157 158 158 157
78 18 16 357 293 296 307 313 317 319 318 321 333 349 358 10 25 18 10 356 0 3 15 24 30 28 15 13 266 198 188 183 165 157 155 156 166 172 173 177 175 172 159
51 0 320 287 268 254 264 282 297 305 307 310 318 326 346 18 30 25 15 5 353 356 0 3 16 20 16 14 18 178 230 223 174 159 157 154 154 164 178 177 177 175 170
13 294 283 277 280 286 264 264 273 289 300 300 305 315 321 39 53 21 8 358 350 354 344 347 0 8 8 6 14 338 309 288 164 154 154 161 161 162 163 156 157 159 156
269 257 257 258 250 247 251 262 268 270 278 289 298 305 310 328 73 18 349 338 340 340 332 338 337 334 338 344 325 317 317 194 164 160 164 165 161 157 149 141 124 115 109
279 270 257 252 254 248 229 237 253 268 283 293 296 299 301 308 356 3 337 329 332 335 332 320 316 316 312 311 318 318 63 116 142 149 146 140 136 143 150 148 146 137 124
288 281 277 264 254 257 252 236 239 236 226 244 271 289 304 305 307 2 345 335 343 343 330 307 287 267 269 230 200 103 124 140 137 134 140 144 147 151 154 151 152 151 156
310 311 311 306 291 269 265 264 239 234 236 234 233 238 256 246 234 255 284 301 311 321 326 293 290 278 252 226 197 188 175 167 160 152 154 159 164 167 165 158 156 158 159
314 312 311 308 305 295 283 274 276 261 244 245 244 241 240 248 250 251 261 283 292 298 282 271 266 259 249 228 201 193 193 182 166 161 163 169 172 172 170 170 170 167 162
318 318 325 314 307 297 289 283 276 274 270 257 240 236 237 241 245 246 249 274 280 254 241 252 256 248 234 223 211 202 195 182 176 185 185 183 183 182 178 179 179 177 171
323 322 321 311 303 301 297 292 287 283 280 276 267 238 231 235 242 246 228 229 250 255 248 245 243 239 228 215 208 203 198 195 191 190 193 190 188 184 186 189 185 181 178
326 325 326 316 313 313 312 312 311 306 300 294 288 277 215 188 217 225 214 224 237 247 248 246 241 233 225 214 206 201 203 204 198 196 196 193 191 189 190 190 186 184 188
328 329 331 326 321 322 324 320 316 313 312 310 302 295 270 234 233 238 230 223 228 236 241 240 236 229 224 214 207 207 208 208 204 200 198 195 192 193 193 188 189 189 184
330 332 335 337 333 332 325 322 325 325 323 319 314 309 286 279 273 272 267 259 245 236 232 231 231 227 219 211 207 210 214 214 208 202 200 196 195 194 192 190 190 190 186
334 337 340 340 340 339 337 334 333 332 331 330 329 328 327 306 290 287 284 281 278 270 257 241 237 238 232 221 211 208 213 217 210 202 198 196 195 194 191 193 192 189 190
336 339 341 341 341 340 340 340 339 338 336 335 337 338 338 333 327 321 317 310 299 288 280 267 253 247 245 240 231 223 222 220 212 206 200 198 197 195 193 195 194 192 193
335 338 341 344 344 342 341 340 341 342 340 339 339 338 337 335 332 333 332 330 325 316 303 291 278 264 258 249 241 239 239 234 230 217 202 199 199 198 195 197 197 194 194
339 343 345 346 345 342 340 339 340 340 338 338 337 336 333 331 331 331 332 333 331 327 322 312 305 303 287 268 260 250 241 239 233 225 215 205 202 203 199 199 200 199 198
Height
1506 1504 1502 1499 1496 1493 1490 1487 1484 1481 1478 1475 1472 1470 1468 1467 1466 1466 1466 1467 1468 1469 1470 1472 1473 1475 1477 1479 1481 1484 1486 1489 1492 1495 1498 1500 1504 1506 1509 1512 1516 1519 1522
1506 1504 1501 1499 1496 1493 1490 1487 1484 1481 1478 1475 1473 1470 1468 1466 1465 1464 1464 1465 1466 1467 1468 1469 1470 1472 1474 1476 1478 1480 1482 1485 1488 1490 1493 1496 1500 1502 1506 1509 1512 1515 1518
1505 1503 1501 1499 1496 1493 1490 1487 1485 1482 1479 1476 1473 1470 1468 1466 1465 1464 1463 1463 1463 1464 1465 1466 1467 1469 1471 1473 1474 1477 1479 1482 1484 1487 1489 1493 1496 1499 1502 1505 1508 1511 1515
1505 1503 1501 1499 1496 1493 1491 1488 1485 1482 1479 1476 1473 1471 1469 1466 1465 1464 1463 1462 1462 1462 1463 1464 1465 1466 1468 1469 1471 1473 1476 1478 1480 1483 1486 1489 1492 1495 1498 1501 1504 1508 1511
1505 1503 1501 1499 1496 1494 1491 1488 1485 1482 1480 1477 1474 1472 1469 1467 1465 1463 1462 1461 1461 1461 1461 1462 1463 1464 1465 1467 1468 1470 1472 1474 1476 1479 1481 1485 1488 1491 1494 1497 1500 1504 1507
1504 1502 1500 1498 1496 1494 1491 1489 1486 1483 1480 1478 1475 1472 1470 1468 1466 1464 1462 1461 1460 1460 1460 1460 1461 1461 1463 1464 1465 1467 1469 1470 1472 1475 1478 1480 1483 1486 1490 1493 1497 1500 1503
1504 1502 1500 1498 1496 1494 1491 1489 1486 1484 1481 1478 1476 1473 1471 1468 1466 1464 1462 1461 1460 1460 1460 1459 1459 1460 1461 1461 1463 1464 1466 1467 1470 1472 1474 1477 1479 1482 1486 1489 1492 1495 1498
1503 1502 1500 1498 1495 1493 1491 1489 1487 1485 1482 1479 1477 1474 1472 1469 1467 1465 1463 1462 1461 1460 1459 1459 1459 1459 1459 1460 1460 1461 1463 1465 1467 1469 1471 1474 1477 1480 1482 1485 1488 1492 1495
1502 1501 1499 1497 1495 1493 1491 1489 1487 1485 1483 1480 1478 1475 1473 1470 1468 1466 1464 1462 1461 1460 1460 1459 1459 1458 1458 1459 1459 1460 1461 1462 1464 1466 1469 1471 1473 1476 1478 1482 1484 1488 1490
1501 1500 1498 1496 1494 1492 1491 1489 1487 1485 1483 1481 1478 1476 1474 1471 1469 1467 1465 1463 1462 1460 1460 1459 1458 1458 1457 1457 1457 1458 1459 1460 1462 1463 1466 1468 1470 1472 1475 1477 1480 1482 1485
1499 1498 1497 1495 1494 1492 1490 1488 1486 1485 1483 1481 1479 1477 1474 1472 1470 1468 1466 1464 1462 1461 1460 1459 1458 1457 1457 1456 1456 1457 1457 1459 1460 1462 1463 1465 1467 1469 1471 1473 1476 1479 1481
1498 1497 1495 1494 1492 1491 1489 1487 1486 1484 1482 1481 1479 1477 1475 1473 1471 1469 1467 1465 1463 1462 1460 1459 1458 1457 1456 1455 1455 1456 1456 1457 1458 1460 1461 1462 1464 1466 1468 1470 1473 1475 1478
1496 1495 1493 1492 1490 1489 1487 1486 1484 1483 1481 1480 1478 1476 1475 1473 1471 1469 1467 1465 1464 1462 1461 1459 1458 1457 1456 1455 1455 1455 1455 1456 1457 1458 1459 1461 1462 1464 1466 1468 1470 1472 1475
1494 1493 1492 1490 1489 1487 1486 1484 1483 1481 1480 1478 1477 1475 1474 1472 1470 1468 1466 1465 1463 1462 1460 1459 1458 1457 1456 1455 1454 1454 1454 1455 1456 1456 1458 1459 1461 1462 1464 1466 1468 1470 1472
1492 1491 1490 1488 1487 1485 1484 1482 1481 1479 1478 1477 1475 1474 1472 1470 1469 1467 1466 1464 1462 1461 1460 1459 1458 1457 1456 1455 1454 1454 1454 1454 1455 1455 1456 1457 1459 1460 1462 1464 1465 1467 1469
1489 1488 1487 1486 1484 1482 1481 1479 1478 1477 1475 1474 1472 1471 1469 1468 1466 1465 1464 1463 1461 1460 1459 1457 1457 1456 1455 1455 1454 1453 1453 1453 1453 1454 1455 1456 1457 1459 1460 1461 1463 1465 1466
1487 1486 1484 1483 1481 1479 1477 1476 1474 1473 1472 1471 1469 1468 1467 1465 1464 1462 1461 1460 1459 1458 1457 1456 1455 1455 1454 1454 1453 1452 1452 1452 1452 1453 1453 1454 1456 1457 1458 1459 1461 1462 1464
1484 1483 1481 1480 1478 1476 1475 1473 1471 1470 1468 1467 1466 1465 1464 1462 1461 1460 1459 1457 1456 1455 1454 1454 1453 1453 1452 1452 1451 1451 1450 1450 1450 1451 1452 1452 1453 1454 1456 1457 1459 1460 1462
1482 1480 1479 1477 1475 1473 1472 1470 1468 1467 1465 1464 1462 1461 1460 1459 1458 1457 1455 1454 1453 1452 1452 1451 1450 1450 1450 1449 1449 1448 1448 1448 1448 1448 1449 1450 1451 1452 1453 1454 1456 1458 1460
1479 1478 1476 1475 1473 1471 1469 1467 1465 1464 1462 1461 1459 1458 1457 1455 1454 1453 1452 1451 1450 1449 1448 1447 1447 1447 1446 1446 1446 1446 1445 1445 1446 1446 1446 1447 1448 1449 1449 1451 1452 1454 1456
1477 1476 1474 1472 1470 1468 1466 1465 1463 1461 1459 1457 1456 1455 1453 1451 1450 1449 1447 1446 1445 1444 1444 1443 1443 1443 1442 1442 1442 1442 1442 1442 1442 1443 1443 1444 1444 1445 1446 1447 1449 1451 1453
1475 1474 1472 1470 1468 1466 1464 1462 1460 1459 1456 1454 1452 1451 1449 1447 1446 1444 1443 1442 1441 1440 1439 1439 1438 1438 1438 1438 1438 1438 1437 1438 1438 1439 1439 1440 1441 1442 1443 1444 1445 1447 1448
1474 1472 1471 1469 1467 1464 1462 1460 1458 1456 1454 1452 1450 1447 1445 1444 1442 1440 1439 1438 1437 1436 1435 1434 1433 1433 1432 1432 1432 1432 1432 1433 1433 1434 1435 1436 1436 1438 1439 1440 1441 1442 1444
1473 1471 1469 1467 1465 1463 1461 1458 1456 1454 1452 1449 1447 1444 1442 1440 1438 1436 1434 1433 1431 1430 1429 1428 1427 1427 1426 1426 1426 1426 1426 1427 1428 1429 1430 1430 1431 1432 1434 1435 1436 1438 1439
1471 1470 1468 1466 1464 1462 1459 1457 1455 1452 1449 1447 1444 1442 1439 1437 1434 1432 1429 1427 1426 1424 1423 1422 1421 1420 1420 1419 1419 1419 1419 1420 1421 1422 1423 1424 1425 1426 1428 1429 1431 1432 1434
1470 1468 1467 1465 1462 1460 1458 1456 1453 1451 1448 1445 1442 1439 1437 1434 1431 1428 1425 1423 1420 1418 1417 1415 1414 1413 1412 1412 1412 1412 1412 1412 1413 1414 1415 1417 1418 1419 1421 1422 1424 1426 1428